Powrót do katalogu

IRIDIUM 33 DEB

AktywnyPO
NORAD 34521·DEBRIS·🇺🇸 United States

Wystrzelony Sep 14, 1997 z Baikonur Cosmodrome

Loading…

Następne Przeloty (najbliższe 24 godziny)

TLE

ŚwieżeSource: Space-Track

Epoka: Sep 14, 2026, 07:05 UTC

1 34521U 97051HN  26257.29579075  .00002865  00000-0  51420-3 0  9999
2 34521  86.3725 268.8672 0005300  67.4796 292.6978 14.66415051925073

Śledź IRIDIUM 33 DEB w czasie rzeczywistym z AllMySat

Download on the App Store